Year,Month,Day,Hour,Minute,Value (Times are PST for temperature in C)
2022,02,01,00,00,-0.20
2022,02,01,00,01,-0.20
2022,02,01,00,02,-0.20
2022,02,01,00,03,-0.20
2022,02,01,00,04,-0.20
2022,02,01,00,05,-0.30
2022,02,01,00,06,-0.30
2022,02,01,00,07,-0.30
2022,02,01,00,08,-0.30
2022,02,01,00,09,-0.30
2022,02,01,00,10,-0.40
2022,02,01,00,11,-0.40
2022,02,01,00,12,-0.40
2022,02,01,00,13,-0.40
2022,02,01,00,14,-0.40
2022,02,01,00,15,-0.40
2022,02,01,00,16,-0.30
2022,02,01,00,17,-0.30
2022,02,01,00,18,-0.30
2022,02,01,00,19,-0.20
2022,02,01,00,20,-0.20
2022,02,01,00,21,-0.10
2022,02,01,00,22,-0.10
2022,02,01,00,23,-0.10
2022,02,01,00,24,-0.10
2022,02,01,00,25,-0.10
2022,02,01,00,26,-0.20
2022,02,01,00,27,-0.20
2022,02,01,00,28,-0.20
2022,02,01,00,29,-0.20
2022,02,01,00,30,-0.30
2022,02,01,00,31,-0.30
2022,02,01,00,32,-0.30
2022,02,01,00,33,-0.30
2022,02,01,00,34,-0.30
2022,02,01,00,35,-0.40
2022,02,01,00,36,-0.40
2022,02,01,00,37,-0.40
2022,02,01,00,38,-0.40
2022,02,01,00,39,-0.40
2022,02,01,00,40,-0.40
2022,02,01,00,41,-0.40
2022,02,01,00,42,-0.40
2022,02,01,00,43,-0.40
2022,02,01,00,44,-0.40
2022,02,01,00,45,-0.50
2022,02,01,00,46,-0.50
2022,02,01,00,47,-0.50
2022,02,01,00,48,-0.50
2022,02,01,00,49,-0.60
2022,02,01,00,50,-0.60
2022,02,01,00,51,-0.60
2022,02,01,00,52,-0.60
2022,02,01,00,53,-0.70
2022,02,01,00,54,-0.70
2022,02,01,00,55,-0.70
2022,02,01,00,56,-0.70
2022,02,01,00,57,-0.70
2022,02,01,00,58,-0.80
2022,02,01,00,59,-0.80
2022,02,01,01,00,-0.80
2022,02,01,01,01,-0.80
2022,02,01,01,02,-0.80
2022,02,01,01,03,-0.80
2022,02,01,01,04,-0.90
2022,02,01,01,05,-0.90
2022,02,01,01,06,-0.90
2022,02,01,01,07,-0.90
2022,02,01,01,08,-0.90
2022,02,01,01,09,-0.90
2022,02,01,01,10,-0.90
2022,02,01,01,11,-0.90
2022,02,01,01,12,-0.90
2022,02,01,01,13,-0.90
2022,02,01,01,14,-0.90
2022,02,01,01,15,-1.00
2022,02,01,01,16,-1.00
2022,02,01,01,17,-1.00
2022,02,01,01,18,-1.00
2022,02,01,01,19,-1.00
2022,02,01,01,20,-1.00
2022,02,01,01,21,-1.10
2022,02,01,01,22,-1.10
2022,02,01,01,23,-1.10
2022,02,01,01,24,-1.10
2022,02,01,01,25,-1.10
2022,02,01,01,26,-1.10
2022,02,01,01,27,-1.20
2022,02,01,01,28,-1.20
2022,02,01,01,29,-1.20
2022,02,01,01,30,-1.20
2022,02,01,01,31,-1.20
2022,02,01,01,32,-1.20
2022,02,01,01,33,-1.20
2022,02,01,01,34,-1.20
2022,02,01,01,35,-1.20
2022,02,01,01,36,-1.20
2022,02,01,01,37,-1.20
2022,02,01,01,38,-1.20
2022,02,01,01,39,-1.20
2022,02,01,01,40,-1.20
2022,02,01,01,41,-1.20
2022,02,01,01,42,-1.20
2022,02,01,01,43,-1.20
2022,02,01,01,44,-1.20
2022,02,01,01,45,-1.20
2022,02,01,01,46,-1.20
2022,02,01,01,47,-1.20
2022,02,01,01,48,-1.30
2022,02,01,01,49,-1.30
2022,02,01,01,50,-1.30
2022,02,01,01,51,-1.30
2022,02,01,01,52,-1.30
2022,02,01,01,53,-1.30
2022,02,01,01,54,-1.30
2022,02,01,01,55,-1.30
2022,02,01,01,56,-1.30
2022,02,01,01,57,-1.30
2022,02,01,01,58,-1.30
2022,02,01,01,59,-1.30
2022,02,01,02,00,-1.30
2022,02,01,02,01,-1.30
2022,02,01,02,02,-1.30
2022,02,01,02,03,-1.30
2022,02,01,02,04,-1.30
2022,02,01,02,05,-1.30
2022,02,01,02,06,-1.30
2022,02,01,02,07,-1.30
2022,02,01,02,08,-1.30
2022,02,01,02,09,-1.30
2022,02,01,02,10,-1.30
2022,02,01,02,11,-1.30
2022,02,01,02,12,-1.30
2022,02,01,02,13,-1.30
2022,02,01,02,14,-1.30
2022,02,01,02,15,-1.30
2022,02,01,02,16,-1.30
2022,02,01,02,17,-1.30
2022,02,01,02,18,-1.30
2022,02,01,02,19,-1.30
2022,02,01,02,20,-1.30
2022,02,01,02,21,-1.40
2022,02,01,02,22,-1.40
2022,02,01,02,23,-1.40
2022,02,01,02,24,-1.40
2022,02,01,02,25,-1.40
2022,02,01,02,26,-1.40
2022,02,01,02,27,-1.40
2022,02,01,02,28,-1.40
2022,02,01,02,29,-1.40
2022,02,01,02,30,-1.40
2022,02,01,02,31,-1.40
2022,02,01,02,32,-1.40
2022,02,01,02,33,-1.40
2022,02,01,02,34,-1.40
2022,02,01,02,35,-1.40
2022,02,01,02,36,-1.40
2022,02,01,02,37,-1.40
2022,02,01,02,38,-1.40
2022,02,01,02,39,-1.50
2022,02,01,02,40,-1.50
2022,02,01,02,41,-1.50
2022,02,01,02,42,-1.50
2022,02,01,02,43,-1.50
2022,02,01,02,44,-1.50
2022,02,01,02,45,-1.50
2022,02,01,02,46,-1.60
2022,02,01,02,47,-1.60
2022,02,01,02,48,-1.60
2022,02,01,02,49,-1.60
2022,02,01,02,50,-1.60
2022,02,01,02,51,-1.60
2022,02,01,02,52,-1.60
2022,02,01,02,53,-1.60
2022,02,01,02,54,-1.60
2022,02,01,02,55,-1.60
2022,02,01,02,56,-1.60
2022,02,01,02,57,-1.70
2022,02,01,02,58,-1.70
2022,02,01,02,59,-1.70
2022,02,01,03,00,-1.70
2022,02,01,03,01,-1.70
2022,02,01,03,02,-1.70
2022,02,01,03,03,-1.70
2022,02,01,03,04,-1.70
2022,02,01,03,05,-1.70
2022,02,01,03,06,-1.70
2022,02,01,03,07,-1.70
2022,02,01,03,08,-1.70
2022,02,01,03,09,-1.70
2022,02,01,03,10,-1.70
2022,02,01,03,11,-1.70
2022,02,01,03,12,-1.70
2022,02,01,03,13,-1.70
2022,02,01,03,14,-1.60
2022,02,01,03,15,-1.60
2022,02,01,03,16,-1.60
2022,02,01,03,17,-1.60
2022,02,01,03,18,-1.60
2022,02,01,03,19,-1.60
2022,02,01,03,20,-1.60
2022,02,01,03,21,-1.60
2022,02,01,03,22,-1.60
2022,02,01,03,23,-1.60
2022,02,01,03,24,-1.60
2022,02,01,03,25,-1.60
2022,02,01,03,26,-1.60
2022,02,01,03,27,-1.50
2022,02,01,03,28,-1.50
2022,02,01,03,29,-1.50
2022,02,01,03,30,-1.50
2022,02,01,03,31,-1.50
2022,02,01,03,32,-1.60
2022,02,01,03,33,-1.60
2022,02,01,03,34,-1.60
2022,02,01,03,35,-1.60
2022,02,01,03,36,-1.60
2022,02,01,03,37,-1.60
2022,02,01,03,38,-1.60
2022,02,01,03,39,-1.60
2022,02,01,03,40,-1.60
2022,02,01,03,41,-1.60
2022,02,01,03,42,-1.60
2022,02,01,03,43,-1.60
2022,02,01,03,44,-1.60
2022,02,01,03,45,-1.60
2022,02,01,03,46,-1.60
2022,02,01,03,47,-1.60
2022,02,01,03,48,-1.60
2022,02,01,03,49,-1.60
2022,02,01,03,50,-1.60
2022,02,01,03,51,-1.60
2022,02,01,03,52,-1.60
2022,02,01,03,53,-1.60
2022,02,01,03,54,-1.60
2022,02,01,03,55,-1.70
2022,02,01,03,56,-1.70
2022,02,01,03,57,-1.70
2022,02,01,03,58,-1.70
2022,02,01,03,59,-1.70
2022,02,01,04,00,-1.70
2022,02,01,04,01,-1.70
2022,02,01,04,02,-1.70
2022,02,01,04,03,-1.70
2022,02,01,04,04,-1.80
2022,02,01,04,05,-1.80
2022,02,01,04,06,-1.80
2022,02,01,04,07,-1.80
2022,02,01,04,08,-1.80
2022,02,01,04,09,-1.80
2022,02,01,04,10,-1.80
2022,02,01,04,11,-1.80
2022,02,01,04,12,-1.80
2022,02,01,04,13,-1.80
2022,02,01,04,14,-1.80
2022,02,01,04,15,-1.90
2022,02,01,04,16,-1.90
2022,02,01,04,17,-1.90
2022,02,01,04,18,-1.80
2022,02,01,04,19,-1.80
2022,02,01,04,20,-1.80
2022,02,01,04,21,-1.80
2022,02,01,04,22,-1.80
2022,02,01,04,23,-1.80
2022,02,01,04,24,-1.80
2022,02,01,04,25,-1.80
2022,02,01,04,26,-1.80
2022,02,01,04,27,-1.80
2022,02,01,04,28,-1.80
2022,02,01,04,29,-1.80
2022,02,01,04,30,-1.80
2022,02,01,04,31,-1.80
2022,02,01,04,32,-1.90
2022,02,01,04,33,-1.90
2022,02,01,04,34,-1.90
2022,02,01,04,35,-1.90
2022,02,01,04,36,-1.90
2022,02,01,04,37,-1.90
2022,02,01,04,38,-1.90
2022,02,01,04,39,-1.90
2022,02,01,04,40,-1.90
2022,02,01,04,41,-1.90
2022,02,01,04,42,-1.90
2022,02,01,04,43,-1.90
2022,02,01,04,44,-1.90
2022,02,01,04,45,-1.90
2022,02,01,04,46,-2.00
2022,02,01,04,47,-2.00
2022,02,01,04,48,-2.10
2022,02,01,04,49,-2.10
2022,02,01,04,50,-2.10
2022,02,01,04,51,-2.10
2022,02,01,04,52,-2.10
2022,02,01,04,53,-2.10
2022,02,01,04,54,-2.20
2022,02,01,04,55,-2.20
2022,02,01,04,56,-2.20
2022,02,01,04,57,-2.20
2022,02,01,04,58,-2.20
2022,02,01,04,59,-2.20
2022,02,01,05,00,-2.20
2022,02,01,05,01,-2.20
2022,02,01,05,02,-2.20
2022,02,01,05,03,-2.20
2022,02,01,05,04,-2.30
2022,02,01,05,05,-2.30
2022,02,01,05,06,-2.30
2022,02,01,05,07,-2.30
2022,02,01,05,08,-2.30
2022,02,01,05,09,-2.30
2022,02,01,05,10,-2.30
2022,02,01,05,11,-2.20
2022,02,01,05,12,-2.20
2022,02,01,05,13,-2.20
2022,02,01,05,14,-2.30
2022,02,01,05,15,-2.30
2022,02,01,05,16,-2.30
2022,02,01,05,17,-2.30
2022,02,01,05,18,-2.30
2022,02,01,05,19,-2.30
2022,02,01,05,20,-2.30
2022,02,01,05,21,-2.30
2022,02,01,05,22,-2.20
2022,02,01,05,23,-2.20
2022,02,01,05,24,-2.20
2022,02,01,05,25,-2.20
2022,02,01,05,26,-2.20
2022,02,01,05,27,-2.20
2022,02,01,05,28,-2.30
2022,02,01,05,29,-2.30
2022,02,01,05,30,-2.30
2022,02,01,05,31,-2.30
2022,02,01,05,32,-2.30
2022,02,01,05,33,-2.30
2022,02,01,05,34,-2.30
2022,02,01,05,35,-2.30
2022,02,01,05,36,-2.30
2022,02,01,05,37,-2.30
2022,02,01,05,38,-2.30
2022,02,01,05,39,-2.30
2022,02,01,05,40,-2.30
2022,02,01,05,41,-2.30
2022,02,01,05,42,-2.30
2022,02,01,05,43,-2.30
2022,02,01,05,44,-2.30
2022,02,01,05,45,-2.30
2022,02,01,05,46,-2.30
2022,02,01,05,47,-2.30
2022,02,01,05,48,-2.30
2022,02,01,05,49,-2.40
2022,02,01,05,50,-2.40
2022,02,01,05,51,-2.40
2022,02,01,05,52,-2.40
2022,02,01,05,53,-2.40
2022,02,01,05,54,-2.40
2022,02,01,05,55,-2.40
2022,02,01,05,56,-2.40
2022,02,01,05,57,-2.40
2022,02,01,05,58,-2.40
2022,02,01,05,59,-2.40
2022,02,01,06,00,-2.40
2022,02,01,06,01,-2.40
2022,02,01,06,02,-2.40
2022,02,01,06,03,-2.40
2022,02,01,06,04,-2.40
2022,02,01,06,05,-2.40
2022,02,01,06,06,-2.50
2022,02,01,06,07,-2.40
2022,02,01,06,08,-2.50
2022,02,01,06,09,-2.50
2022,02,01,06,10,-2.50
2022,02,01,06,11,-2.50
2022,02,01,06,12,-2.50
2022,02,01,06,13,-2.50
2022,02,01,06,14,-2.50
2022,02,01,06,15,-2.50
2022,02,01,06,16,-2.50
2022,02,01,06,17,-2.50
2022,02,01,06,18,-2.50
2022,02,01,06,19,-2.50
2022,02,01,06,20,-2.50
2022,02,01,06,21,-2.50
2022,02,01,06,22,-2.50
2022,02,01,06,23,-2.40
2022,02,01,06,24,-2.40
2022,02,01,06,25,-2.40
2022,02,01,06,26,-2.40
2022,02,01,06,27,-2.40
2022,02,01,06,28,-2.40
2022,02,01,06,29,-2.40
2022,02,01,06,30,-2.40
2022,02,01,06,31,-2.40
2022,02,01,06,32,-2.40
2022,02,01,06,33,-2.40
2022,02,01,06,34,-2.40
2022,02,01,06,35,-2.40
2022,02,01,06,36,-2.40
2022,02,01,06,37,-2.40
2022,02,01,06,38,-2.40
2022,02,01,06,39,-2.40
2022,02,01,06,40,-2.40
2022,02,01,06,41,-2.40
2022,02,01,06,42,-2.40
2022,02,01,06,43,-2.40
2022,02,01,06,44,-2.40
2022,02,01,06,45,-2.40
2022,02,01,06,46,-2.40
2022,02,01,06,47,-2.40
2022,02,01,06,48,-2.40
2022,02,01,08,12,-2.30
2022,02,01,08,13,-2.30
2022,02,01,08,14,-2.30
2022,02,01,08,15,-2.30
2022,02,01,08,16,-2.20
2022,02,01,08,17,-2.20
2022,02,01,08,18,-2.20
2022,02,01,08,19,-2.20
2022,02,01,08,20,-2.10
2022,02,01,08,21,-2.10
2022,02,01,08,22,-2.00
2022,02,01,08,23,-1.90
2022,02,01,08,24,-1.80
2022,02,01,08,25,-1.70
2022,02,01,08,26,-1.60
2022,02,01,08,27,-1.60
2022,02,01,08,28,-1.50
2022,02,01,08,29,-1.50
2022,02,01,08,30,-1.60
2022,02,01,08,31,-1.60
2022,02,01,08,32,-1.60
2022,02,01,08,33,-1.60
2022,02,01,08,34,-1.60
2022,02,01,08,35,-1.60
2022,02,01,08,36,-1.60
2022,02,01,08,37,-1.60
2022,02,01,08,38,-1.60
2022,02,01,08,39,-1.60
2022,02,01,08,40,-1.60
2022,02,01,08,41,-1.50
2022,02,01,08,42,-1.40
2022,02,01,08,43,-1.40
2022,02,01,08,44,-1.30
2022,02,01,08,45,-1.30
2022,02,01,08,46,-1.10
2022,02,01,08,47,-1.00
2022,02,01,08,48,-0.90
2022,02,01,08,49,-0.70
2022,02,01,08,50,-0.60
2022,02,01,08,51,-0.60
2022,02,01,08,52,-0.60
2022,02,01,08,53,-0.60
2022,02,01,08,54,-0.60
2022,02,01,08,55,-0.70
2022,02,01,08,56,-0.70
2022,02,01,08,57,-0.70
2022,02,01,08,58,-0.70
2022,02,01,08,59,-0.80
2022,02,01,09,00,-0.70
2022,02,01,09,01,-0.50
2022,02,01,09,02,-0.30
2022,02,01,09,03,-0.20
2022,02,01,09,04,0.00
2022,02,01,09,05,0.10
2022,02,01,09,06,0.10
2022,02,01,09,07,0.10
2022,02,01,09,08,0.10
2022,02,01,09,09,0.10
2022,02,01,09,10,0.10
2022,02,01,09,11,0.10
2022,02,01,09,12,0.20
2022,02,01,09,13,0.20
2022,02,01,09,14,0.20
2022,02,01,09,15,0.20
2022,02,01,09,16,0.30
2022,02,01,09,17,0.30
2022,02,01,09,18,0.40
2022,02,01,09,19,0.60
2022,02,01,09,20,0.80
2022,02,01,09,21,1.00
2022,02,01,09,22,1.20
2022,02,01,09,23,1.40
2022,02,01,09,24,1.60
2022,02,01,09,25,1.60
2022,02,01,09,26,1.60
2022,02,01,09,27,1.60
2022,02,01,09,28,1.60
2022,02,01,09,29,1.70
2022,02,01,09,30,1.90
2022,02,01,09,31,2.10
2022,02,01,09,32,2.30
2022,02,01,09,33,2.50
2022,02,01,09,34,2.80
2022,02,01,09,35,3.00
2022,02,01,09,36,3.10
2022,02,01,09,37,3.10
2022,02,01,09,38,3.10
2022,02,01,09,39,3.10
2022,02,01,09,40,3.10
2022,02,01,09,41,3.10
2022,02,01,09,42,3.20
2022,02,01,09,43,3.30
2022,02,01,09,44,3.50
2022,02,01,09,45,3.60
2022,02,01,09,46,3.70
2022,02,01,09,47,3.70
2022,02,01,09,48,3.70
2022,02,01,09,49,3.60
2022,02,01,09,50,3.60
2022,02,01,09,51,3.50
2022,02,01,09,52,3.50
2022,02,01,09,53,3.40
2022,02,01,09,54,3.30
2022,02,01,09,55,3.30
2022,02,01,09,56,3.20
2022,02,01,09,57,3.20
2022,02,01,09,58,3.20
2022,02,01,09,59,3.10
2022,02,01,10,00,3.10
2022,02,01,10,01,3.10
2022,02,01,10,02,3.00
2022,02,01,10,03,3.00
2022,02,01,10,04,3.00
2022,02,01,10,05,3.00
2022,02,01,10,06,2.90
2022,02,01,10,07,2.90
2022,02,01,10,08,2.90
2022,02,01,10,09,2.90
2022,02,01,10,10,2.80
2022,02,01,10,11,2.80
2022,02,01,10,12,2.80
2022,02,01,10,13,2.80
2022,02,01,10,14,2.90
2022,02,01,10,15,2.90
2022,02,01,10,16,2.90
2022,02,01,10,17,2.90
2022,02,01,10,18,2.90
2022,02,01,10,19,2.90
2022,02,01,10,20,2.90
2022,02,01,10,21,2.80
2022,02,01,10,22,2.80
2022,02,01,10,23,2.80
2022,02,01,10,24,2.80
2022,02,01,10,25,2.80
2022,02,01,10,26,2.80
2022,02,01,10,27,2.80
2022,02,01,10,28,2.90
2022,02,01,10,29,2.90
2022,02,01,10,30,2.90
2022,02,01,10,31,2.90
2022,02,01,10,32,2.90
2022,02,01,10,33,2.90
2022,02,01,10,34,2.90
2022,02,01,10,35,2.90
2022,02,01,10,36,2.90
2022,02,01,10,37,2.80
2022,02,01,10,38,2.80
2022,02,01,10,39,2.80
2022,02,01,10,40,2.80
2022,02,01,10,41,2.80
2022,02,01,10,42,2.80
2022,02,01,10,43,2.80
2022,02,01,10,44,2.80
2022,02,01,10,45,2.80
2022,02,01,10,46,2.80
2022,02,01,10,47,2.80
2022,02,01,10,48,2.90
2022,02,01,10,49,2.90
2022,02,01,10,50,3.00
2022,02,01,10,51,3.00
2022,02,01,10,52,3.00
2022,02,01,10,53,3.10
2022,02,01,10,54,3.10
2022,02,01,10,55,3.10
2022,02,01,10,56,3.20
2022,02,01,10,57,3.20
2022,02,01,10,58,3.20
2022,02,01,10,59,3.20
2022,02,01,11,00,3.30
2022,02,01,11,01,3.30
2022,02,01,11,02,3.30
2022,02,01,11,03,3.30
2022,02,01,11,04,3.30
2022,02,01,11,05,3.30
2022,02,01,11,06,3.40
2022,02,01,11,07,3.40
2022,02,01,11,08,3.40
2022,02,01,11,09,3.50
2022,02,01,11,10,3.50
2022,02,01,11,11,3.50
2022,02,01,11,12,3.60
2022,02,01,11,13,3.60
2022,02,01,11,14,3.60
2022,02,01,11,15,3.70
2022,02,01,11,16,3.70
2022,02,01,11,17,3.70
2022,02,01,11,18,3.70
2022,02,01,11,19,3.80
2022,02,01,11,20,3.80
2022,02,01,11,21,3.80
2022,02,01,11,22,3.80
2022,02,01,11,23,3.80
2022,02,01,11,24,3.80
2022,02,01,11,25,3.80
2022,02,01,11,26,3.80
2022,02,01,11,27,3.80
2022,02,01,11,28,3.90
2022,02,01,11,29,3.90
2022,02,01,11,30,3.90
2022,02,01,11,31,4.00
2022,02,01,11,32,4.00
2022,02,01,11,33,4.10
2022,02,01,11,34,4.10
2022,02,01,11,35,4.10
2022,02,01,11,36,4.10
2022,02,01,11,37,4.10
2022,02,01,11,38,4.10
2022,02,01,11,39,4.10
2022,02,01,11,40,4.20
2022,02,01,11,41,4.20
2022,02,01,11,42,4.20
2022,02,01,11,43,4.30
2022,02,01,11,44,4.30
2022,02,01,11,45,4.30
2022,02,01,11,46,4.40
2022,02,01,11,47,4.40
2022,02,01,11,48,4.40
2022,02,01,11,49,4.40
2022,02,01,11,50,4.50
2022,02,01,11,51,4.50
2022,02,01,11,52,4.60
2022,02,01,11,53,4.60
2022,02,01,11,54,4.60
2022,02,01,11,55,4.70
2022,02,01,11,56,4.70
2022,02,01,11,57,4.80
2022,02,01,11,58,4.80
2022,02,01,11,59,4.80
2022,02,01,12,00,4.80
2022,02,01,12,01,4.80
2022,02,01,12,02,4.90
2022,02,01,12,03,4.90
2022,02,01,12,04,5.00
2022,02,01,12,05,5.00
2022,02,01,12,06,5.10
2022,02,01,12,07,5.10
2022,02,01,12,08,5.10
2022,02,01,12,09,5.20
2022,02,01,12,10,5.30
2022,02,01,12,11,5.40
2022,02,01,12,12,5.40
2022,02,01,12,13,5.50
2022,02,01,12,14,5.60
2022,02,01,12,15,5.60
2022,02,01,12,16,5.70
2022,02,01,12,17,5.80
2022,02,01,12,18,5.80
2022,02,01,12,19,5.80
2022,02,01,12,20,5.80
2022,02,01,12,21,5.80
2022,02,01,12,22,5.80
2022,02,01,12,23,5.80
2022,02,01,12,24,5.80
2022,02,01,12,25,5.90
2022,02,01,12,26,5.80
2022,02,01,12,27,5.80
2022,02,01,12,28,5.80
2022,02,01,12,29,5.80
2022,02,01,12,30,5.70
2022,02,01,12,31,5.70
2022,02,01,12,32,5.70
2022,02,01,12,33,5.70
2022,02,01,12,34,5.60
2022,02,01,12,35,5.60
2022,02,01,12,36,5.60
2022,02,01,12,37,5.60
2022,02,01,12,38,5.60
2022,02,01,12,39,5.50
2022,02,01,12,40,5.50
2022,02,01,12,41,5.50
2022,02,01,12,42,5.50
2022,02,01,12,43,5.50
2022,02,01,12,44,5.50
2022,02,01,12,45,5.50
2022,02,01,12,46,5.50
2022,02,01,12,47,5.50
2022,02,01,12,48,5.50
2022,02,01,12,49,5.50
2022,02,01,12,50,5.50
2022,02,01,12,51,5.50
2022,02,01,12,52,5.50
2022,02,01,12,53,5.60
2022,02,01,12,54,5.60
2022,02,01,12,55,5.60
2022,02,01,12,56,5.60
2022,02,01,12,57,5.70
2022,02,01,12,58,5.70
2022,02,01,12,59,5.70
2022,02,01,13,00,5.70
2022,02,01,13,01,5.70
2022,02,01,13,02,5.70
2022,02,01,13,03,5.70
2022,02,01,13,04,5.70
2022,02,01,13,05,5.70
2022,02,01,13,06,5.60
2022,02,01,13,07,5.60
2022,02,01,13,08,5.60
2022,02,01,13,09,5.60
2022,02,01,13,10,5.60
2022,02,01,13,11,5.60
2022,02,01,13,12,5.70
2022,02,01,13,13,5.70
2022,02,01,13,14,5.70
2022,02,01,13,15,5.70
2022,02,01,13,16,5.70
2022,02,01,13,17,5.70
2022,02,01,13,18,5.70
2022,02,01,13,19,5.70
2022,02,01,13,20,5.70
2022,02,01,13,21,5.70
2022,02,01,13,22,5.70
2022,02,01,13,23,5.80
2022,02,01,13,24,5.80
2022,02,01,13,25,5.80
2022,02,01,13,26,5.80
2022,02,01,13,27,5.80
2022,02,01,13,28,5.80
2022,02,01,13,29,5.80
2022,02,01,13,30,5.80
2022,02,01,13,31,5.80
2022,02,01,13,32,5.80
2022,02,01,13,33,5.80
2022,02,01,13,34,5.80
2022,02,01,13,35,5.80
2022,02,01,13,36,5.80
2022,02,01,13,37,5.80
2022,02,01,13,38,5.80
2022,02,01,13,39,5.70
2022,02,01,13,40,5.70
2022,02,01,13,41,5.70
2022,02,01,13,42,5.70
2022,02,01,13,43,5.70
2022,02,01,13,44,5.70
2022,02,01,13,45,5.70
2022,02,01,13,46,5.70
2022,02,01,13,47,5.60
2022,02,01,13,48,5.60
2022,02,01,13,49,5.60
2022,02,01,13,50,5.60
2022,02,01,13,51,5.60
2022,02,01,13,52,5.60
2022,02,01,13,53,5.60
2022,02,01,13,54,5.60
2022,02,01,13,55,5.60
2022,02,01,13,56,5.70
2022,02,01,13,57,5.70
2022,02,01,13,58,5.70
2022,02,01,13,59,5.70
2022,02,01,14,00,5.70
2022,02,01,14,01,5.70
2022,02,01,14,02,5.70
2022,02,01,14,03,5.70
2022,02,01,14,04,5.70
2022,02,01,14,05,5.70
2022,02,01,14,06,5.70
2022,02,01,14,07,5.70
2022,02,01,14,08,5.70
2022,02,01,14,09,5.70
2022,02,01,14,10,5.70
2022,02,01,14,11,5.70
2022,02,01,14,12,5.70
2022,02,01,14,13,5.70
2022,02,01,14,14,5.70
2022,02,01,14,15,5.70
2022,02,01,14,16,5.60
2022,02,01,14,17,5.60
2022,02,01,14,18,5.60
2022,02,01,14,19,5.60
2022,02,01,14,20,5.60
2022,02,01,14,21,5.60
2022,02,01,14,22,5.60
2022,02,01,14,23,5.60
2022,02,01,14,24,5.60
2022,02,01,14,25,5.60
2022,02,01,14,26,5.60
2022,02,01,14,27,5.60
2022,02,01,14,28,5.60
2022,02,01,14,29,5.60
2022,02,01,14,30,5.60
2022,02,01,14,31,5.50
2022,02,01,14,32,5.60
2022,02,01,14,33,5.50
2022,02,01,14,34,5.50
2022,02,01,14,35,5.50
2022,02,01,14,36,5.50
2022,02,01,14,37,5.50
2022,02,01,14,38,5.50
2022,02,01,14,39,5.50
2022,02,01,14,40,5.50
2022,02,01,14,41,5.50
2022,02,01,14,42,5.50
2022,02,01,14,43,5.50
2022,02,01,14,44,5.50
2022,02,01,14,45,5.50
2022,02,01,14,46,5.50
2022,02,01,14,47,5.50
2022,02,01,14,48,5.50
2022,02,01,14,49,5.50
2022,02,01,14,50,5.50
2022,02,01,14,51,5.50
2022,02,01,14,52,5.50
2022,02,01,14,53,5.50
2022,02,01,14,54,5.50
2022,02,01,14,55,5.60
2022,02,01,14,56,5.60
2022,02,01,14,57,5.60
2022,02,01,14,58,5.60
2022,02,01,14,59,5.60
2022,02,01,15,00,5.60
2022,02,01,15,01,5.60
2022,02,01,15,02,5.60
2022,02,01,15,03,5.60
2022,02,01,15,04,5.60
2022,02,01,15,05,5.60
2022,02,01,15,06,5.60
2022,02,01,15,07,5.50
2022,02,01,15,08,5.50
2022,02,01,15,09,5.50
2022,02,01,15,10,5.50
2022,02,01,15,11,5.50
2022,02,01,15,12,5.50
2022,02,01,15,13,5.50
2022,02,01,15,14,5.50
2022,02,01,15,15,5.50
2022,02,01,15,16,5.50
2022,02,01,15,17,5.40
2022,02,01,15,18,5.40
2022,02,01,15,19,5.40
2022,02,01,15,20,5.40
2022,02,01,15,21,5.40
2022,02,01,15,22,5.40
2022,02,01,15,23,5.40
2022,02,01,15,24,5.40
2022,02,01,15,25,5.40
2022,02,01,15,26,5.40
2022,02,01,15,27,5.40
2022,02,01,15,28,5.40
2022,02,01,15,29,5.40
2022,02,01,15,30,5.40
2022,02,01,15,31,5.40
2022,02,01,15,32,5.40
2022,02,01,15,33,5.40
2022,02,01,15,34,5.40
2022,02,01,15,35,5.40
2022,02,01,15,36,5.40
2022,02,01,15,37,5.40
2022,02,01,15,38,5.40
2022,02,01,15,39,5.30
2022,02,01,15,40,5.30
2022,02,01,15,41,5.30
2022,02,01,15,42,5.30
2022,02,01,15,43,5.30
2022,02,01,15,44,5.30
2022,02,01,15,45,5.30
2022,02,01,15,46,5.30
2022,02,01,15,47,5.30
2022,02,01,15,48,5.30
2022,02,01,15,49,5.30
2022,02,01,15,50,5.30
2022,02,01,15,51,5.30
2022,02,01,15,52,5.30
2022,02,01,15,53,5.30
2022,02,01,15,54,5.30
2022,02,01,15,55,5.30
2022,02,01,15,56,5.30
2022,02,01,15,57,5.30
2022,02,01,15,58,5.30
2022,02,01,15,59,5.30
2022,02,01,16,00,5.30
2022,02,01,16,01,5.30
2022,02,01,16,02,5.30
2022,02,01,16,03,5.30
2022,02,01,16,04,5.40
2022,02,01,16,05,5.30
2022,02,01,16,06,5.40
2022,02,01,16,07,5.40
2022,02,01,16,08,5.40
2022,02,01,16,09,5.40
2022,02,01,16,10,5.40
2022,02,01,16,11,5.40
2022,02,01,16,12,5.40
2022,02,01,16,13,5.40
2022,02,01,16,14,5.40
2022,02,01,16,15,5.30
2022,02,01,16,16,5.30
2022,02,01,16,17,5.30
2022,02,01,16,18,5.30
2022,02,01,16,19,5.30
2022,02,01,16,20,5.30
2022,02,01,16,21,5.30
2022,02,01,16,22,5.30
2022,02,01,16,23,5.20
2022,02,01,16,24,5.20
2022,02,01,16,25,5.20
2022,02,01,16,26,5.20
2022,02,01,16,27,5.20
2022,02,01,16,28,5.20
2022,02,01,16,29,5.20
2022,02,01,16,30,5.20
2022,02,01,16,31,5.20
2022,02,01,16,32,5.20
2022,02,01,16,33,5.20
2022,02,01,16,34,5.10
2022,02,01,16,35,5.10
2022,02,01,16,36,5.10
2022,02,01,16,37,5.10
2022,02,01,16,38,5.10
2022,02,01,16,39,5.10
2022,02,01,16,40,5.10
2022,02,01,16,41,5.00
2022,02,01,16,42,5.00
2022,02,01,16,43,5.00
2022,02,01,16,44,5.00
2022,02,01,16,45,4.90
2022,02,01,16,46,4.90
2022,02,01,16,47,4.90
2022,02,01,16,48,4.90
2022,02,01,16,49,4.90
2022,02,01,16,50,4.80
2022,02,01,16,51,4.80
2022,02,01,16,52,4.80
2022,02,01,16,53,4.80
2022,02,01,16,54,4.80
2022,02,01,16,55,4.70
2022,02,01,16,56,4.70
2022,02,01,16,57,4.70
2022,02,01,16,58,4.70
2022,02,01,16,59,4.60
2022,02,01,17,00,4.60
2022,02,01,17,01,4.60
2022,02,01,17,02,4.50
2022,02,01,17,03,4.50
2022,02,01,17,04,4.50
2022,02,01,17,05,4.50
2022,02,01,17,06,4.40
2022,02,01,17,07,4.40
2022,02,01,17,08,4.40
2022,02,01,17,09,4.40
2022,02,01,17,10,4.40
2022,02,01,17,11,4.40
2022,02,01,17,12,4.40
2022,02,01,17,13,4.30
2022,02,01,17,14,4.30
2022,02,01,17,15,4.30
2022,02,01,17,16,4.30
2022,02,01,17,17,4.30
2022,02,01,17,18,4.30
2022,02,01,17,19,4.20
2022,02,01,17,20,4.20
2022,02,01,17,21,4.20
2022,02,01,17,22,4.20
2022,02,01,17,23,4.10
2022,02,01,17,24,4.10
2022,02,01,17,25,4.10
2022,02,01,17,26,4.10
2022,02,01,17,27,4.10
2022,02,01,17,28,4.00
2022,02,01,17,29,4.00
2022,02,01,17,30,4.00
2022,02,01,17,31,4.00
2022,02,01,17,32,3.90
2022,02,01,17,33,3.90
2022,02,01,17,34,3.80
2022,02,01,17,35,3.80
2022,02,01,17,36,3.80
2022,02,01,17,37,3.70
2022,02,01,17,38,3.70
2022,02,01,17,39,3.60
2022,02,01,17,40,3.60
2022,02,01,17,41,3.60
2022,02,01,17,42,3.50
2022,02,01,17,43,3.50
2022,02,01,17,44,3.40
2022,02,01,17,45,3.40
2022,02,01,17,46,3.30
2022,02,01,17,47,3.30
2022,02,01,17,48,3.30
2022,02,01,17,49,3.20
2022,02,01,17,50,3.20
2022,02,01,17,51,3.20
2022,02,01,17,52,3.20
2022,02,01,17,53,3.20
2022,02,01,17,54,3.10
2022,02,01,17,55,3.10
2022,02,01,17,56,3.10
2022,02,01,17,57,3.10
2022,02,01,17,58,3.10
2022,02,01,17,59,3.10
2022,02,01,18,00,3.00
2022,02,01,18,01,3.00
2022,02,01,18,02,3.00
2022,02,01,18,03,3.00
2022,02,01,18,04,2.90
2022,02,01,18,05,2.90
2022,02,01,18,06,2.90
2022,02,01,18,07,2.90
2022,02,01,18,08,2.90
2022,02,01,18,09,2.80
2022,02,01,18,10,2.80
2022,02,01,18,11,2.80
2022,02,01,18,12,2.80
2022,02,01,18,13,2.80
2022,02,01,18,14,2.80
2022,02,01,18,15,2.80
2022,02,01,18,16,2.80
2022,02,01,18,17,2.80
2022,02,01,18,18,2.80
2022,02,01,18,19,2.80
2022,02,01,18,20,2.70
2022,02,01,18,21,2.70
2022,02,01,18,22,2.70
2022,02,01,18,23,2.60
2022,02,01,18,24,2.60
2022,02,01,18,25,2.50
2022,02,01,18,26,2.50
2022,02,01,18,27,2.40
2022,02,01,18,28,2.40
2022,02,01,18,29,2.40
2022,02,01,18,30,2.30
2022,02,01,18,31,2.30
2022,02,01,18,32,2.30
2022,02,01,18,33,2.30
2022,02,01,18,34,2.30
2022,02,01,18,35,2.30
2022,02,01,18,36,2.30
2022,02,01,18,37,2.20
2022,02,01,18,38,2.20
2022,02,01,18,39,2.20
2022,02,01,18,40,2.20
2022,02,01,18,41,2.20
2022,02,01,18,42,2.20
2022,02,01,18,43,2.20
2022,02,01,18,44,2.10
2022,02,01,18,45,2.10
2022,02,01,18,46,2.10
2022,02,01,18,47,2.10
2022,02,01,18,48,2.10
2022,02,01,18,49,2.10
2022,02,01,18,50,2.10
2022,02,01,18,51,2.00
2022,02,01,18,52,2.00
2022,02,01,18,53,2.00
2022,02,01,18,54,2.00
2022,02,01,18,55,1.90
2022,02,01,18,56,1.90
2022,02,01,18,57,1.90
2022,02,01,18,58,1.90
2022,02,01,18,59,1.80
2022,02,01,19,00,1.80
2022,02,01,19,01,1.80
2022,02,01,19,02,1.80
2022,02,01,19,03,1.70
2022,02,01,19,04,1.70
2022,02,01,19,05,1.70
2022,02,01,19,06,1.70
2022,02,01,19,07,1.70
2022,02,01,19,08,1.70